This is the latest recevied weather packets stored in our database for station/object KA4JMC. If no packets are shown the sender has not sent any weather packets the latest 1 day(s).
| Time | Temp. | Humidity | Pressure | Rain* | Wind** | Luminosity | Snow |
|---|---|---|---|---|---|---|---|
| 1778005516 | 15.56° C | - | 982.8 hPa | - | 0 m/s | - | - |
| 1778005214 | 15.56° C | - | 982.8 hPa | - | 0 m/s | - | - |
| 1778004913 | 16.11° C | - | 982.8 hPa | - | 0 m/s | - | - |
| 1778004614 | 16.11° C | - | 982.8 hPa | - | 0 m/s | - | - |
| 1778004335 | 16.11° C | - | 982.8 hPa | - | 0.89 m/s, 136° | - | - |
| 1778004025 | 16.11° C | - | 981.8 hPa | - | 1.79 m/s, 202° | - | - |
| 1778003726 | 15.56° C | - | 981.8 hPa | - | 0 m/s | - | - |
| 1778003426 | 15.56° C | - | 981.8 hPa | - | 1.79 m/s, 316° | - | - |
| 1778003114 | 15.56° C | - | 981.8 hPa | - | 0 m/s | - | - |
| 1778002813 | 15° C | - | 981.8 hPa | - | 1.34 m/s, 177° | - | - |
| 1778002537 | 15.56° C | - | 981.8 hPa | - | 1.34 m/s, 325° | - | - |
| 1778002216 | 15° C | - | 981.8 hPa | - | 1.34 m/s, 298° | - | - |
| 1778001935 | 15° C | - | 981.8 hPa | - | 1.79 m/s, 201° | - | - |
| 1778001613 | 14.44° C | - | 981.8 hPa | - | 0.89 m/s, 221° | - | - |
| 1778001319 | 14.44° C | - | 981.8 hPa | - | 1.79 m/s, 334° | - | - |
| 1778001018 | 14.44° C | - | 981.8 hPa | - | 2.68 m/s, 338° | - | - |
| 1778000724 | 14.44° C | - | 981.8 hPa | - | 1.79 m/s, 324° | - | - |
| 1778000122 | 13.89° C | - | 982.8 hPa | - | 0.89 m/s, 270° | - | - |
| 1777999814 | 13.89° C | - | 982.8 hPa | - | 0 m/s | - | - |
| 1777999514 | 13.33° C | - | 981.8 hPa | - | 1.79 m/s, 200° | - | - |
| 1777999217 | 13.33° C | - | 981.8 hPa | - | 1.34 m/s, 357° | - | - |
| 1777998918 | 13.33° C | - | 981.8 hPa | - | 0 m/s | - | - |
| 1777998615 | 13.33° C | - | 981.8 hPa | - | 1.34 m/s, 302° | - | - |
| 1777998325 | 13.33° C | - | 981.8 hPa | - | 0 m/s | - | - |
| 1777998022 | 12.78° C | - | 981.8 hPa | - | 0 m/s | - | - |
* Rain since midnight (hover to see other rain measurements)
** Current wind speed in m/s (hover to see current wind gust speed)